FW7560 Weather Reports


time (UTC)temp
C
wind
direction
speed
KPH
gust
KPH
rain 1hr
cm
rain 24hr
cm
rain mn
cm
humidity
%
barometer
mb
20260510201551 21 0.0 0.0 0.00 0.00 0.00 51 1017.2
20260510200114 21 0.0 0.0 0.00 0.00 0.00 48 1017.2
20260510194558 22 0.0 0.0 0.00 0.00 0.00 46 1017.1
20260510193104 22 0.0 0.0 0.00 0.00 0.00 45 1017.1
20260510191601 23 0.0 0.0 0.00 0.00 0.00 44 1017.1
20260510190051 22 0.0 0.0 0.00 0.00 0.00 46 1016.9
20260510184552 22 0.0 0.0 0.00 0.00 0.00 46 1017.1
20260510183056 22 0.0 0.0 0.00 0.00 0.00 46 1017.2
20260510181555 22 0.0 0.0 0.00 0.00 0.00 46 1017.1
20260510180058 22 0.0 0.0 0.00 0.00 0.00 48 1017.0
20260510174558 22 0.0 0.0 0.00 0.00 0.00 51 1017.4
20260510173105 22 0.0 0.0 0.00 0.00 0.00 50 1017.5
20260510171557 21 0.0 0.0 0.00 0.00 0.00 53 1017.6
20260510170106 21 0.0 0.0 0.00 0.00 0.00 52 1017.6
20260510164553 21 0.0 0.0 0.00 0.00 0.00 56 1017.7
20260510163051 20 0.0 0.0 0.00 0.00 0.00 55 1017.7
20260510161555 20 0.0 0.0 0.00 0.00 0.00 54 1017.8
20260510160052 20 0.0 0.0 0.00 0.00 0.00 55 1017.6
20260510154554 21 0.0 0.0 0.00 0.00 0.00 54 1017.7
20260510153054 20 0.0 0.0 0.00 0.00 0.00 57 1017.7
20260510151558 20 0.0 0.0 0.00 0.00 0.00 58 1017.7
20260510150055 20 0.0 0.0 0.00 0.00 0.00 57 1017.7
20260510144555 20 0.0 0.0 0.00 0.00 0.00 57 1017.6
20260510143054 19 0.0 0.0 0.00 0.00 0.00 61 1017.5
20260510141602 18 0.0 0.0 0.00 0.00 0.00 60 1017.3
20260510140056 18 0.0 0.0 0.00 0.00 0.00 61 1017.5
20260510134605 18 0.0 0.0 0.00 0.00 0.00 66 1017.4
20260510133110 17 0.0 0.0 0.00 0.00 0.00 68 1017.5
20260510131603 16 0.0 0.0 0.00 0.00 0.00 70 1017.8
20260510130052 14 0.0 0.0 0.00 0.00 0.00 80 1017.6
20260510124557 12 0.0 0.0 0.00 0.00 0.00 90 1017.6
20260510123104 10 0.0 0.0 0.00 0.00 0.00 96 1017.4
20260510121553 9 0.0 0.0 0.00 0.00 0.00 98 1017.2
20260510120055 7 0.0 0.0 0.00 0.00 0.00 98 1017.1
20260510114549 7 0.0 0.0 0.00 0.00 0.00 97 1017.0
20260510113052 6 0.0 0.0 0.00 0.00 0.00 97 1016.8
20260510111551 6 0.0 0.0 0.00 0.00 0.00 96 1016.7
20260510110051 5 0.0 0.0 0.00 0.00 0.00 96 1016.3
20260510104550 5 0.0 0.0 0.00 0.00 0.00 96 1016.1
20260510103059 5 0.0 0.0 0.00 0.00 0.00 95 1015.9
20260510101555 5 0.0 0.0 0.00 0.00 0.00 95 1015.7
20260510100053 5 0.0 0.0 0.00 0.00 0.00 95 1015.8
20260510094552 5 0.0 0.0 0.00 0.00 0.00 96 1015.7
20260510093052 5 0.0 0.0 0.00 0.00 0.00 95 1015.6
20260510091558 5 0.0 0.0 0.00 0.00 0.00 94 1015.5
20260510090114 6 0.0 0.0 0.00 0.00 0.00 94 1015.3
20260510084555 6 0.0 0.0 0.00 0.00 0.00 95 1015.2
20260510083056 6 0.0 0.0 0.00 0.00 0.00 94 1015.2
20260510081555 6 0.0 0.0 0.00 0.00 0.00 95 1015.1
20260510080056 6 0.0 0.0 0.00 0.00 0.00 94 1015.1
20260510074550 6 0.0 0.0 0.00 0.00 0.00 94 1014.9
20260510073105 6 0.0 0.0 0.00 0.00 0.00 94 1014.8
20260510071605 6 0.0 0.0 0.00 0.00 0.00 93 1014.8
20260510070050 6 0.0 0.0 0.00 0.00 0.00 93 1014.7
20260510064601 7 0.0 0.0 0.00 0.00 0.00 93 1014.7
20260510063053 7 0.0 0.0 0.00 0.00 0.00 93 1014.7
20260510061556 7 0.0 0.0 0.00 0.00 0.00 93 1014.6
20260510060056 7 0.0 0.0 0.00 0.00 0.00 92 1014.5
20260510054552 7 0.0 0.0 0.00 0.00 0.00 91 1014.6
20260510053056 8 0.0 0.0 0.00 0.00 0.00 92 1014.6
20260510051555 8 0.0 0.0 0.00 0.00 0.00 91 1014.6
20260510050053 8 0.0 0.0 0.00 0.00 0.00 91 1014.7
20260510044553 8 0.0 0.0 0.00 0.00 0.00 91 1014.6
20260510043107 8 0.0 0.0 0.00 0.00 0.00 89 1014.6
20260510041556 8 0.0 0.0 0.00 0.00 0.00 89 1014.7
20260510040110 9 0.0 0.0 0.00 0.00 0.00 88 1014.5
20260510034552 9 0.0 0.0 0.00 0.00 0.00 87 1014.5
20260510033054 10 0.0 0.0 0.00 0.00 0.00 86 1014.5
20260510031557 10 0.0 0.0 0.00 0.00 0.00 85 1014.3
20260510030056 10 0.0 0.0 0.00 0.00 0.00 85 1014.3
20260510024553 11 0.0 0.0 0.00 0.00 0.00 83 1014.4
20260510023306 11 0.0 0.0 0.00 0.00 0.00 82 1014.5
20260510021601 11 0.0 0.0 0.00 0.00 0.00 80 1014.4
20260510020053 12 0.0 0.0 0.00 0.00 0.00 77 1014.2
20260510014606 12 0.0 0.0 0.00 0.00 0.00 75 1013.8
20260510013100 13 0.0 0.0 0.00 0.00 0.00 73 1013.4
20260510011557 13 0.0 0.0 0.00 0.00 0.00 71 1013.2
20260510010052 14 0.0 0.0 0.00 0.00 0.00 70 1013.1
20260510004556 15 0.0 0.0 0.00 0.00 0.00 67 1013.1
20260510003057 16 0.0 0.0 0.00 0.00 0.00 65 1013.0
20260510001557 16 0.0 0.0 0.00 0.00 0.00 63 1012.9
20260510000059 16 0.0 0.0 0.00 0.00 0.00 62 1012.7
20260509234553 17 0.0 0.0 0.00 0.00 0.00 60 1012.4
20260509233055 17 0.0 0.0 0.00 0.00 0.00 60 1012.3
20260509231551 17 0.0 0.0 0.00 0.00 0.00 59 1012.1
20260509230052 17 0.0 0.0 0.00 0.00 0.00 58 1012.1
20260509224557 18 0.0 0.0 0.00 0.00 0.00 57 1012.1
20260509223056 18 0.0 0.0 0.00 0.00 0.00 57 1012.2
20260509221605 18 0.0 0.0 0.00 0.00 0.00 57 1012.3
20260509220100 18 0.0 0.0 0.00 0.00 0.00 56 1012.2
20260509214601 18 0.0 0.0 0.00 0.00 0.00 57 1012.2
20260509213054 18 0.0 0.0 0.00 0.00 0.00 58 1012.2
20260509211557 18 0.0 0.0 0.00 0.00 0.00 56 1012.1
20260509210113 18 0.0 0.0 0.00 0.00 0.00 56 1011.8
20260509204558 18 0.0 0.0 0.00 0.00 0.00 56 1011.8
20260509203059 18 0.0 0.0 0.00 0.00 0.00 55 1011.7